www.pogodaiklimat.ru
Время
(UTC), дата
16 12.04
17 12.04
18 12.04
19 12.04
20 12.04
21 12.04
22 12.04
23 12.04
00 13.04
05 13.04
08 13.04
09 13.04
10 13.04
11 13.04
12 13.04
13 13.04
14 13.04
15 13.04
16 13.04
17 13.04
18 13.04
19 13.04
20 13.04
21 13.04
22 13.04
23 13.04
00 14.04
01 14.04
02 14.04
03 14.04
04 14.04
05 14.04
06 14.04
07 14.04
08 14.04
09 14.04
10 14.04
11 14.04
12 14.04
13 14.04
14 14.04
15 14.04
16 14.04
17 14.04
18 14.04
19 14.04
20 14.04
21 14.04
22 14.04
23 14.04
00 15.04
01 15.04
02 15.04
03 15.04
04 15.04
05 15.04
06 15.04
07 15.04
08 15.04
09 15.04
10 15.04
11 15.04
12 15.04
13 15.04
14 15.04
15 15.04
16 15.04
17 15.04
18 15.04
19 15.04
20 15.04
21 15.04
22 15.04
23 15.04
00 16.04
01 16.04
02 16.04
03 16.04
04 16.04
05 16.04
06 16.04
07 16.04
08 16.04
09 16.04
10 16.04
11 16.04
12 16.04
13 16.04
14 16.04
15 16.04
16 16.04
17 16.04
18 16.04
19 16.04
20 16.04
21 16.04
22 16.04
23 16.04
00 17.04
01 17.04
02 17.04
03 17.04
04 17.04
05 17.04
06 17.04
07 17.04
08 17.04
09 17.04
10 17.04
11 17.04
12 17.04
13 17.04
14 17.04
15 17.04
16 17.04
17 17.04
18 17.04
19 17.04
20 17.04
21 17.04
22 17.04
23 17.04
00 18.04
01 18.04
02 18.04
03 18.04
04 18.04
05 18.04
06 18.04
07 18.04
08 18.04
09 18.04
10 18.04
11 18.04
12 18.04
13 18.04
14 18.04
15 18.04
16 18.04
17 18.04
18 18.04
19 18.04
20 18.04
21 18.04
22 18.04
23 18.04
00 19.04
01 19.04
02 19.04
03 19.04
04 19.04
05 19.04
06 19.04
07 19.04
08 19.04
09 19.04
10 19.04
11 19.04
12 19.04
13 19.04
14 19.04
Ветер
(напр.,м/с)
Видим. Явления Облачность Т
(С)
Тd
(С)
f
(%)
Тe
(С)
Тes
(С)
Комфортность P
(гПа)
Po
(гПа)
Тmin
(С)
Tmax
(С)
R
(мм)
R24
(мм)
S
(см)
ЮЗ 3
{5}
15 км 6/4 1050 м
[Cu med, cong Ac cuf Ci ing]
+5.5 +1.9 78 +2 +4 тепло 1029.2 1022.3
ЮЗ 1
{4}
15 км 5/5 1260 м
[Cu Sc Ac cuf Ci fib]
+5.6 +1.2 73 +5 +5 тепло 1029.4 1022.6
С 4
{10}
15 км {ливн. дождь, снег} 5/5 1380 м
[Cu Sc Ci fib]
+5.4 -2.7 56 +2 +2 холодно 1029.8 1022.9 +7.3 2
С 2
{5}
15 км 1/1 1500 м
[Sc diur, vesp]
+3.1 -2.2 68 0 0 холодно 1030.5 1023.5
СЗ 2
{3}
15 км 1/0
[Ci fib]
+1.9 -3.6 67 -1 -1 прохладно 1031.1 1024.1
СЗ 1
{5}
15 км 1/0
[Ci fib]
+2.0 -3.7 66 +1 +1 холодно 1031.3 1024.3
СЗ 1
{3}
15 км 1/0
[Ci fib]
+1.2 -4.0 68 -0 -0 прохладно 1031.7 1024.7
З 2
{3}
15 км 1/0
[Ci fib]
+1.8 -3.8 66 -1 -1 по сезону 1031.9 1024.9
З 1
{5}
30 км 1/1 1170 м
[Sc Ac trans Ci fib]
+0.2 -2.9 80 -2 -2 холодно 1032.2 1025.2
З 2
{3}
30 км 1/0
[Ac trans Ci fib]
-0.6 -2.7 86 -4 -4 прохладно 1032.9 1025.8
нст 1
{3}
30 км 1/1 840 м
[Cu hum]
+5.3 +0.8 73 +4 +10 тепло 1034.3 1027.4
С 2
{4}
30 км 4/4 900 м
[Cu hum]
+6.0 -0.7 62 +4 +9 прохладно 1034.5 1027.6
нст 1
{5}
30 км 4/4 1020 м
[Cu med, cong]
+6.7 -0.5 60 +6 +14 по сезону 1034.4 1027.5
З 2
{5}
30 км 4/4 1020 м
[Cu med, cong]
+6.8 -1.0 58 +5 +13 тепло 1034.1 1027.2
СЗ 2
{6}
30 км 4/4 1200 м
[Cu med, cong]
+7.1 -1.6 54 +5 +13 холодно 1033.7 1026.8
С 2
{5}
30 км 4/4 1200 м
[Cu hum]
+7.5 -6.4 37 +6 +13 по сезону 1033.4 1026.5
нст 1
{4}
30 км 4/4 1350 м
[Cu med, cong]
+9.6 -3.0 41 +10 +16 тепло 1032.9 1026.1
С 4
{7}
30 км 5/5 900 м
[Cu Sc Ci fib]
+8.2 -2.9 45 +6 +8 прохладно 1032.8 1025.9
штиль 0
{7}
30 км 6/4 2000 м
[Sc diur, vesp Ac cuf Ci fib]
+8.7 -2.7 45 +9 +11 по сезону 1032.2 1025.3
В 3
{5}
30 км 6/5 1500 м
[Cb calv Ac cuf Ci fib]
+8.6 -2.1 47 +7 +7 по сезону 1032.0 1025.2
В 1
{7}
30 км осадки на расстоянии 6/4 1500 м
[Cu Sc Ac trans Ci fib]
+8.0 -3.6 44 +8 +8 по сезону 1032.2 1025.3 +10.2
СВ 3
{5}
30 км осадки на расстоянии 6/6 1500 м
[Cu Sc Ac trans Ci fib]
+6.4 +0.7 67 +4 +4 по сезону 1032.7 1025.8
В 1
{3}
30 км 4/4 1500 м
[Sc Ac trans Ci fib]
+6.2 -3.3 51 +6 +6 по сезону 1032.9 1026.0
штиль 0
{5}
30 км 5/0 2000 м
[Ac trans Ci fib]
+5.1 -4.3 51 +5 +5 по сезону 1032.8 1025.8
штиль 0
{1}
30 км 9/0 2000 м
[Ac As]
+4.4 -2.2 62 +4 +4 по сезону 1032.8 1025.8
СВ 1
{1}
30 км 9/0 2000 м
[Ac As]
+4.5 -3.4 56 +4 +4 тепло 1032.5 1025.6
В 1
{5}
30 км 9/0 2000 м
[Ac As]
+4.3 -3.0 59 +3 +3 по сезону 1032.3 1025.4
ЮВ 1
{1}
30 км 9/0 2000 м
[Ac As]
+2.1 -0.2 85 0 0 по сезону 1032.1 1025.1
СВ 1
{1}
30 км 8/8 2000 м
[Sc]
+0.9 -2.9 76 -1 -1 по сезону 1032.0 1025.0
ЮВ 1
{2}
30 км 6/6 2000 м
[Sc Ci fib]
-0.3 -1.1 94 -2 -2 холодно 1031.6 1024.6
штиль 0
{2}
30 км 8/8 2000 м
[Sc]
+0.7 -0.9 89 -1 -1 по сезону 1031.5 1024.4
Ю 1
{2}
30 км 8/8 2000 м
[Sc]
+0.9 -1.0 87 -1 -1 по сезону 1031.2 1024.2
штиль 0
{2}
30 км 8/0 2000 м
[Ac As]
+1.4 -0.4 88 0 +1 прохладно 1031.7 1024.6 -0.3
Ю 1
{1}
30 км 8/0 2000 м
[Ac As]
+3.7 +0.9 82 +2 +4 по сезону 1031.8 1024.9
Ю 2
{3}
30 км 6/0 2000 м
[Ac As]
+6.1 -0.1 64 +4 +7 тепло 1031.8 1024.9
ЮВ 2
{3}
30 км 4/1 1080 м
[Cu med, cong Ac As]
+7.0 -1.7 54 +5 +11 по сезону 1031.9 1025.0
ЮВ 1
{3}
30 км осадки на расстоянии 5/3 1320 м
[Sc diur, vesp Ac cuf]
+8.2 -2.6 46 +8 +15 тепло 1031.7 1024.9
ЮЗ 1
{2}
30 км в посл. час ливневой дождь 8/5 1440 м
[Sc diur, vesp Ac cuf]
+7.8 -3.4 45 +8 +12 тепло 1031.3 1024.4
СЗ 2
{5}
30 км 8/4 1470 м
[Sc diur, vesp Ac cuf]
+8.9 -3.8 41 +8 +12 по сезону 1031.0 1024.2
СВ 3
{5}
30 км осадки на расстоянии 6/4 1470 м
[Cu med, cong Ac cuf Ci fib]
+8.1 -2.4 47 +6 +11 по сезону 1030.8 1024.0
СВ 1
{5}
30 км осадки на расстоянии 6/4 1470 м
[Cu med, cong Ac cuf Ci fib]
+8.4 -2.5 46 +8 +14 по сезону 1030.5 1023.6
В 4
{9}
30 км осадки на расстоянии 6/4 1470 м
[Cu med, cong Ac cuf Ci fib]
+8.3 -0.6 53 +6 +8 прохладно 1030.3 1023.4
С 5
{8}
30 км осадки на расстоянии 6/4 1050 м
[Cu med, cong Ac cuf Ci fib]
+7.4 +0.1 60 +4 +5 прохладно 1030.2 1023.4
С 5
{7}
30 км осадки на расстоянии 8/3 1200 м
[Sc diur, vesp Ac cuf Ci fib]
+6.8 -1.1 57 +3 +3 по сезону 1030.2 1023.3
С 2
{9}
30 км 8/3 1200 м
[Sc diur, vesp Ac cuf Ci fib]
+6.4 -0.4 62 +4 +5 прохладно 1030.0 1023.2 +9.6
С 4
{6}
30 км 6/4 1500 м
[Sc diur, vesp Ac cuf Ci fib]
+6.0 -2.3 55 +3 +3 прохладно 1030.4 1023.5
С 3
{8}
30 км 8/4 1500 м
[Sc diur, vesp Ac cuf Ci fib]
+5.3 -0.6 66 +2 +2 по сезону 1030.9 1024.0
С 4
{8}
30 км 6/3 1110 м
[Sc diur, vesp Ac cuf Ci fib]
+4.5 +0.5 75 0 0 холодно 1031.3 1024.4
С 2
{6}
30 км 4/1 1500 м
[Sc diur, vesp Ac trans]
+1.9 -0.3 85 -1 -1 прохладно 1031.4 1024.4
СВ 1
{2}
30 км 3/0
[Ac trans]
+2.2 -0.3 84 +1 +1 по сезону 1031.4 1024.4
С 1
{8}
30 км 3/0
[Ci fib]
+1.4 -1.1 83 -0 -0 прохладно 1031.4 1024.4
С 2
{2}
30 км 3/0
[Ci fib]
+0.5 -0.9 90 -3 -3 прохладно 1031.2 1024.2
С 1
{2}
30 км 1/0
[Ac trans]
+0.4 -0.8 92 -2 -2 по сезону 1031.0 1024.0
С 1
{2}
30 км 1/0
[Ci fib]
0.0 -0.9 94 -2 -2 холодно 1031.0 1024.0
С 1
{2}
30 км 1/0
[Ci fib]
-0.2 -0.7 96 -2 -2 по сезону 1031.2 1024.1
штиль 0
{4}
30 км 1/0
[Ci fib]
-0.3 -0.8 96 -2 -2 по сезону 1031.3 1024.3
штиль 0
{4}
16 км 1/0
[Ac trans]
0.0 -0.5 96 -1 -0 прохладно 1031.6 1024.6 -1.0
С 1
{1}
16 км 3/3 1470 м
[Sc Ac trans]
+2.3 +0.8 90 +1 +3 по сезону 1031.7 1024.7
СВ 1
{2}
16 км 4/3 540 м
[Cu hum Ac trans]
+4.8 +1.9 81 +4 +8 тепло 1031.7 1024.7
СВ 1
{3}
28 км 6/6 750 м
[Cu Sc Ac trans]
+5.8 +0.9 71 +5 +9 по сезону 1031.7 1024.8
нст 1
{4}
28 км 6/6 800 м
[Sc diur, vesp Ac cuf Ci fib]
+7.3 +0.8 63 +7 +12 по сезону 1031.6 1024.7
В 1
{4}
30 км 6/6 1000 м
[Sc diur, vesp Ac cuf Ci fib]
+7.1 -0.7 58 +7 +13 тепло 1031.5 1024.6
СВ 2
{6}
30 км слаб. ливневой дождь 6/6 1050 м
[Sc diur, vesp Ac cuf Ci fib]
+6.7 -0.4 60 +5 +10 холодно 1031.2 1024.3
СВ 2
{4}
30 км 6/4 1200 м
[Sc diur, vesp Ac cuf Ci fib]
+8.3 -0.3 55 +7 +13 по сезону 1030.8 1024.0
В 2
{6}
35 км 6/5 1320 м
[Sc diur, vesp Ac cuf Ci fib]
+7.6 -1.0 54 +6 +10 по сезону 1030.4 1023.6
СВ 3
{6}
35 км 6/4 1300 м
[Sc diur, vesp Ac cuf Ci fib]
+8.2 -2.9 45 +6 +9 прохладно 1029.9 1023.0
В 3
{6}
35 км 8/3 1440 м
[Sc diur, vesp Ac cuf Ci fib]
+7.8 -0.8 54 +6 +7 по сезону 1029.8 1023.0
СВ 3
{5}
35 км 8/3 1350 м
[Sc diur, vesp Ac cuf Ci fib]
+7.9 -0.7 55 +6 +6 по сезону 1029.6 1022.8
СВ 2
{6}
35 км {ливн. дождь} 6/1 1380 м
[Sc diur, vesp Ac cuf Ci fib]
+6.0 +1.5 73 +4 +4 прохладно 1029.6 1022.7 +9.7
С 2
{2}
35 км 4/0 2000 м
[Ac trans Ci]
+4.4 -0.2 72 +2 +2 прохладно 1029.7 1022.8
С 1
{3}
35 км 4/0
[Ci]
+3.9 -1.2 69 +3 +3 по сезону 1030.1 1023.2
С 1
{3}
35 км 5/0
[Ci]
+3.7 -2.4 64 +3 +3 прохладно 1030.0 1023.1
С 2
{3}
35 км 3/0
[Ci fib]
+2.6 -1.5 74 -0 -0 прохладно 1030.0 1023.0
СВ 1
{3}
35 км 1/0
[Ci fib]
+3.0 -1.8 71 +2 +2 по сезону 1030.0 1023.1
СВ 1
{3}
35 км 1/0
[Ci fib]
+2.4 -1.2 77 +1 +1 по сезону 1029.9 1022.9
СВ 1
{2}
35 км 1/0
[Ci fib]
+2.0 -1.2 79 0 0 по сезону 1029.5 1022.5
СВ 1
{1}
35 км 1/0
[Ci fib]
-0.2 -2.4 85 -2 -2 по сезону 1029.3 1022.3
СВ 1
{2}
35 км 1/0
[Ci fib]
+0.6 -2.0 83 -1 -1 прохладно 1029.3 1022.2
штиль 0
{1}
35 км 1/0
[Ci fib]
+0.2 -1.9 86 -1 -1 по сезону 1029.2 1022.2
С 1
{2}
35 км 1/0
[Ci fib]
+0.2 -2.5 82 -2 -2 по сезону 1029.3 1022.2
С 1
{3}
35 км 4/0
[Ac trans Ci fib]
+0.2 -2.4 83 -2 -1 прохладно 1029.5 1022.5 -0.5
С 2
{3}
35 км 4/3 1350 м
[Sc Ac trans Ci fib]
+1.6 -1.1 82 -2 0 по сезону 1029.7 1022.7
СВ 1
{3}
35 км 5/0
[Ac und Ci fib]
+3.0 -0.3 79 +2 +6 тепло 1030.1 1023.1
С 1
{3}
35 км 6/0
[Ac trans Ci fib]
+5.0 +0.4 72 +4 +10 по сезону 1029.8 1022.9
СВ 3
{5}
35 км 3/1 750 м
[Cu hum Ac trans Ci fib]
+7.3 -0.4 58 +5 +12 по сезону 1029.7 1022.9
СВ 5
{7}
35 км 4/4 1350 м
[Cu hum Ci fib]
+9.0 -1.4 48 +6 +10 тепло 1029.1 1022.3
СВ 6
{8}
35 км 5/5 1500 м
[Sc diur, vesp Ci fib]
+9.7 -1.8 45 +7 +9 по сезону 1028.5 1021.7
В 2
{8}
35 км 8/8 1500 м
[Sc diur, vesp Ci fib]
+9.6 -1.4 46 +9 +11 по сезону 1028.3 1021.5
В 3
{7}
35 км 8/8 1500 м
[Sc diur, vesp Ci fib]
+10.5 -2.9 39 +9 +11 тепло 1027.9 1021.2
СВ 3
{8}
35 км 8/8 1500 м
[Sc diur, vesp Ci fib]
+10.4 -2.5 40 +9 +10 по сезону 1027.4 1020.6
С 4
{7}
35 км 8/8 1500 м
[Sc diur, vesp Ci fib]
+10.4 -1.1 45 +8 +9 по сезону 1027.1 1020.3
С 3
{6}
35 км 4/3 1500 м
[Sc diur, vesp Ac trans Ci fib]
+9.7 -1.6 45 +8 +9 тепло 1026.8 1020.0
С 2
{8}
50 км 3/1 1500 м
[Sc Ac trans Ci sp]
+9.0 -0.6 51 +8 +8 по сезону 1026.7 1019.9 +11.5
С 3
{6}
50 км 1/0
[Ac trans Ci sp]
+6.3 +0.3 65 +3 +3 по сезону 1027.0 1020.2
С 3
{6}
50 км 1/0
[Ci fib]
+5.7 +0.6 70 +3 +3 по сезону 1027.5 1020.7
С 3
{6}
50 км ясно +4.7 +1.2 78 +1 +1 прохладно 1027.6 1020.6
С 1
{4}
50 км ясно +4.5 +0.6 76 +3 +3 по сезону 1027.6 1020.7
С 2
{3}
50 км ясно +3.4 +1.2 85 0 0 по сезону 1027.7 1020.8
С 2
{6}
50 км ясно +2.7 +1.0 89 -1 -1 прохладно 1027.6 1020.7
С 1
{3}
50 км ясно +3.2 0.0 80 +2 +2 по сезону 1027.4 1020.5
С 2
{3}
50 км ясно +2.5 -0.5 81 -1 -1 тепло 1027.3 1020.4
С 2
{3}
50 км ясно +1.6 -0.8 84 -2 -2 прохладно 1027.3 1020.3
С 2
{3}
50 км в посл. час морось ясно +1.5 -0.7 85 -2 -2 по сезону 1027.2 1020.2
С 1
{3}
30 км 1/0
[Ac trans Ci fib]
+1.7 -0.7 84 0 0 тепло 1027.5 1020.5
С 2
{3}
30 км 6/0
[Ac trans Ci fib]
+2.0 -0.1 86 -1 -0 прохладно 1027.6 1020.7 +1.0
С 2
{3}
30 км 6/0
[Ac trans Ci fib]
+3.3 +0.3 81 0 +3 по сезону 1027.6 1020.7
СВ 3
{5}
30 км 5/0
[Ac trans Ci fib]
+5.6 +0.9 72 +3 +6 тепло 1027.7 1020.8
СВ 3
{5}
30 км 5/4 1500 м
[Sc Ac trans Ci fib]
+7.7 +1.1 63 +5 +9 по сезону 1027.6 1020.7
СВ 4
{7}
30 км 3/3 1050 м
[Cu hum]
+9.7 +0.9 54 +7 +13 тепло 1027.3 1020.5
С 5
{8}
30 км 6/6 1440 м
[Sc diur, vesp]
+10.1 +0.3 51 +7 +10 тепло 1026.6 1019.8
С 5
{8}
30 км 5/5 1500 м
[Sc]
+10.6 -0.4 46 +8 +12 по сезону 1026.1 1019.4
СВ 4
{10}
30 км 5/5 1500 м
[Sc]
+11.4 +1.0 49 +10 +14 тепло 1025.7 1019.0
СВ 4
{8}
30 км 4/4 1500 м
[Sc]
+12.0 +1.0 47 +10 +14 тепло 1025.2 1018.4
С 4
{10}
30 км 4/4 1200 м
[Cu Sc]
+11.8 -0.6 42 +10 +13 тепло 1024.5 1017.8
С 4
{8}
30 км 4/4 1500 м
[Sc]
+11.5 -0.3 44 +10 +11 тепло 1024.1 1017.4
С 4
{8}
30 км 4/3 1500 м
[Sc Ci fib]
+11.2 -0.2 45 +9 +10 тепло 1023.9 1017.2
С 3
{10}
50 км 1/1 1500 м
[Sc Ac trans Ci fib]
+9.7 +0.5 53 +8 +8 по сезону 1024.1 1017.3 +12.4
С 3
{5}
50 км 3/0
[Ac trans Ci fib]
+7.0 +1.3 67 +4 +4 по сезону 1024.3 1017.4
С 4
{6}
50 км 1/0
[Ac trans]
+7.4 +2.1 69 +4 +4 тепло 1024.5 1017.7
С 3
{6}
50 км 1/0
[Ac trans]
+6.0 +1.8 74 +3 +3 по сезону 1024.7 1017.8
С 2
{5}
50 км 6/0 2000 м
[Ac trans]
+5.9 +2.3 78 +4 +4 по сезону 1024.7 1017.8
С 2
{4}
40 км 8/0 2000 м
[Ac trans]
+5.3 +1.9 79 +3 +3 тепло 1024.8 1017.9
СЗ 2
{6}
30 км 1/1 2000 м
[Sc diur, vesp]
+4.2 +1.4 82 +1 +1 по сезону 1024.8 1017.9
СЗ 2
{2}
30 км 6/6 1500 м
[Sc]
+3.5 +1.6 87 +1 +1 по сезону 1024.6 1017.7
СЗ 1
{2}
30 км 1/1 1500 м
[Sc diur, vesp]
+3.8 +1.4 84 +2 +2 тепло 1024.2 1017.3
СЗ 1
{2}
15 км ясно +2.7 +0.9 88 +1 +1 по сезону 1024.1 1017.1
штиль 0
{2}
12 км 1/0
[Ac trans]
+2.8 +1.4 90 +2 +2 тепло 1024.0 1017.0
СЗ 1
{1}
9000 м 1/0
[Ac trans]
+2.4 +1.6 94 +1 +1 тепло 1024.0 1017.1
нст 1
{2}
8000 м 1/0
[Ac trans Ci fib]
+3.3 +2.6 95 +2 +3 по сезону 1024.2 1017.3 +2.0
С 2
{3}
8000 м 1/0
[Ac trans Ci fib]
+5.4 +4.3 93 +3 +6 тепло 1024.4 1017.6
СЗ 2
{3}
18 км 1/0
[Ac trans Ci fib]
+7.1 +4.5 84 +5 +10 тепло 1024.2 1017.4
С 2
{4}
25 км 1/0
[Ci fib]
+9.1 +2.7 64 +8 +16 тепло 1024.1 1017.4
нст 2
{6}
25 км 1/0
[Ci fib]
+10.6 +2.4 57 +10 +21 опасность
простуды
1023.9 1017.2
СЗ 2
{5}
25 км 4/1 1080 м
[Cu hum Ac trans Ci fib]
+11.3 +1.8 52 +10 +20 опасность
простуды
1023.7 1017.0
нст 2
{6}
25 км 4/1 1200 м
[Cu hum Ac trans Ci fib]
+12.3 +2.0 49 +12 +22 тепло 1023.5 1016.8
З 3
{5}
25 км 3/1 1380 м
[Cu hum Ac trans Ci fib]
+12.9 +2.8 50 +12 +20 тепло 1023.2 1016.5
С 2
{6}
25 км 3/1 1500 м
[Cu hum Ac trans Ci fib]
+13.4 +1.5 44 +13 +21 тепло 1022.8 1016.2
С 3
{7}
25 км 1/1 1500 м
[Cu hum]
+13.7 +2.9 48 +13 +18 тепло 1022.4 1015.8
СЗ 3
{7}
25 км 1/1 1500 м
[Cu hum Ac trans Ci fib]
+13.6 +3.5 50 +13 +16 тепло 1022.2 1015.6
СЗ 4
{6}
25 км 3/1 1500 м
[Sc diur, vesp Ac lent Ci fib]
+12.8 +3.3 52 +11 +12 тепло 1022.5 1015.8
СЗ 4
{7}
30 км 1/0
[Ci sp]
+11.5 +3.6 58 +10 +10 тепло 1022.6 1015.9 +14.1
СЗ 3
{6}
30 км 1/0
[Ci fib]
+9.8 +3.6 65 +8 +8 тепло 1022.8 1016.1
СЗ 3
{6}
30 км 1/0
[Ci fib]
+8.4 +3.8 73 +6 +6 тепло 1023.3 1016.5
СЗ 2
{6}
20 км 1/0
[Ci fib]
+7.0 +4.4 84 +5 +5 по сезону 1023.4 1016.6
СЗ 3
{4}
15 км 1/0
[Ci fib]
+5.8 +3.9 88 +2 +2 по сезону 1023.3 1016.5
СЗ 2
{3}
11 км 1/0
[Ac trans]
+5.2 +3.6 89 +3 +3 тепло 1022.9 1016.1
З 2
{6}
10 км 1/0
[Ac trans]
+4.4 +3.5 94 +2 +2 по сезону 1022.8 1015.9
З 2
{3}
6000 м 1/0
[Ci fib]
+4.4 +3.6 95 +1 +1 по сезону 1022.4 1015.5
З 1
{3}
5000 м дымка 1/0
[Ci fib]
+4.1 +3.3 95 +3 +3 тепло 1022.1 1015.2
З 3
{4}
5000 м дымка 4/4 2000 м
[Sc]
+4.6 +4.0 96 +1 +1 по сезону 1021.9 1015.0
З 2
{5}
4000 м дымка 6/1 150 м
[Sc]
+3.8 +3.3 97 +1 +1 тепло 1021.7 1014.8
З 2
{3}
3500 м дымка 9/9 90 м
[Sc]
+4.5 +4.1 97 +2 +2 тепло 1021.6 1014.7
З 2
{5}
2500 м дымка 9/9 120 м
[Sc]
+5.0 +4.6 97 +2 +2 по сезону 1021.6 1014.8 +3.7
СЗ 2
{4}
3800 м дымка 8/8 150 м
[Sc]
+6.7 +5.6 93 +4 +5 тепло 1021.6 1014.7
СЗ 2
{4}
6000 м 3/3 210 м
[Sc Ci fib]
+8.3 +6.1 86 +6 +10 тепло 1021.2 1014.5
СЗ 2
{4}
9000 м 3/1 360 м
[Cu hum Ac trans Ci sp]
+10.0 +6.0 76 +9 +16 тепло 1021.1 1014.4
С 2
{5}
14 км 3/1 720 м
[Cu hum Ac trans Ci sp]
+11.1 +5.3 67 +10 +19 тепло 1021.0 1014.3
С 2
{5}
15 км 9/3 900 м
[Cu Sc Ac As Ci sp]
+12.1 +3.4 55 +11 +17 тепло 1020.7 1014.0
нст 1
{5}
15 км 9/3 1020 м
[Cu Sc Ac As Ci sp]
+12.2 +4.9 61 +12 +19 тепло 1020.3 1013.6
С 3
{4}
18 км в посл. час ливневой дождь 9/4 720 м
[Cu Sc Ac As Ci sp]
+11.6 +6.4 70 +10 +14 тепло 1020.3 1013.6
СВ 2
{4}
18 км 9/9 720 м
[Cu Sc]
+11.9 +6.0 67 +11 +12 тепло 1020.0 1013.3
Местоположение метеостанции Брюссель (Бельгия): широта 50.90 долгота 4.53 высота над уровнем моря 58 м.
В архиве по умолчанию представлена погода в Брюсселе за последнюю неделю. Архивные данные за месяц целиком и за предыдущие месяцы, начиная с января 2011 года, Вы можете получить, выбрав интересующий диапазон дат из раскрывающегося списка и нажав кнопку "Найти!".
*Определитесь, кто Вы:
Внимание! Время в таблицах - всемирное. Для получения местного времени необходимо прибавить поправку, которая равна 1 ч.
Смотрите также архив погоды в соседних городах и на ближайших метеорологических станциях:
Партнеры нашего сайта:      
Пояснения к столбцам:
  • Ветер - указаны скорость ветра в м/с - средняя за 10 мин, порывы в срок и между сроками (в фигурных скобках) и направление, откуда дует ветер: С - северный,
  • СВ - северо-восточный, В - восточный, ЮВ - юго-восточный, Ю - южный, ЮЗ - юго-западный, З - западный, СЗ - северо-западный.
  • Видимость - горизонтальная дальность видимости в метрах или километрах. При видимости от 1 до 10 км при отсутствии осадков обычно наблюдается дымка, при ухудшении видимости до 1 км и менее - туман. В сухую погоду видимость может ухудшаться дымом, пылью или мглою.
  • Явления - указаны атмосферные явления, наблюдавшиеся в срок или в последний час перед сроком; фигурными скобками обозначены явления, наблюдавшиеся между сроками (за 1-3 часа до срока); квадратными скобками обозначены град или гололедные отложения с указанием их диаметра в мм.
  • Облачность - указаны через наклонную черту общая и нижняя облачность в баллах и высота нижней границы облаков в метрах; квадратными скобками обозначены формы облаков: Ci - перистые, Cs - перисто-слоистые, Cc - перисто-кучевые, Ac - высококучевые, As - высокослоистые, Sc - слоисто-кучевые, Ns - слоисто-дождевые, Cu - кучевые, Cb - кучево-дождевые. Подробнее классификацию облаков см. в Атласе облаков (PDF).
  • T - Температура воздуха - температура, измеренная на высоте 2 м над землей.
  • Td - Температура точки росы - температура, при понижении до которой содержащийся в воздухе водяной пар достигнет насыщения.
  • f - Относительная влажность воздуха - влажноcть воздуха, измеренная на высоте 2 м над землей.
  • Te - Эффективная температура - температура, которую ощущает одетый по сезону человек в тени. Характеристика душности погоды. При расчете учитывается влияние влажности воздуха и скорости ветра на теплоощущения человека.
  • Tes - Эффективная температура на солнце - температура, которую ощущает человек, с поправкой на солнечный нагрев. Характеристика знойности погоды. Зависит от высоты солнца над горизонтом, облачности и скорости ветра. Ночью, в пасмурную погоду, а также при ветре 12 м/с и более поправка равна нулю.
  • P - Атмосферное давление - приведенное к уровню моря атмосферное давление.
  • Po - Атмосферное давление - измеренное на уровне метеостанции атмосферное давление.
  • Tmin - Минимальная температура - минимум температуры воздуха на высоте 2 м над землей.
  • Tmax - Максимальная температура - максимум температуры воздуха на высоте 2 м над землей.
  • R - Количество осадков - Количество выпавших осадков за период времени, мм. При наведении курсора мыши на число - период времени, за который выпало указанное количество осадков.
  • R24 - Количество осадков - Количество выпавших осадков за 24 часа, мм.
  • S - Снежный покров - Высота снежного покрова, см. При наведении курсора мыши на число - состояние снежного покрова и степень покрытия местности в баллах.